Date String (YYYY-MM-DD hh:mm:ss) UTC,Instrument flags,absolute air pressure of the measurement (hPa),sample flow rate (lpm),inlet stack bypass flow (lpm),air temperature of the measurement (°C),ambient temperature measured by the external sensor (°C),aerosol sample conditioner tube jacket temperature (°C),OPC LED temperature (°C),internal box temperature (°C),relative humidity of the measurement (%),span deviation,mass concentration of particles derived from Lorenz-Mie calculation of OPC scattering (μg/m³),mass concentration of particles derived from Lorenz-Mie calculation of OPC scattering (μg/m³),mass concentration of particles derived from Lorenz-Mie calculation of OPC scattering (μg/m³)
DateTimeUTC,F1_M11,P_M11,Q1_M11,Q2_M11,T1_M11,T2_M11,T3_M11,T4_M11,T5_M11,U1_M11,ZSPAN_M11,X0_M11,X2_M11,X1_M11
2023-09-05 19:00:00,SystemResetWarning,0833.3,5.01,000.00,027.7,025.1,000.0,036.2,029.2,24.6,0000.0,0010.38,0003.39,0002.60
2023-09-05 19:01:00,SystemResetWarning,0833.3,4.99,000.00,027.8,025.5,000.0,036.2,029.3,24.4,0000.0,0010.74,0003.43,0002.59
2023-09-05 19:02:00,SystemResetWarning,0833.3,5.00,000.00,027.8,025.9,000.0,036.2,029.4,24.9,0000.0,0010.74,0003.48,0002.60
2023-09-05 19:03:00,SystemResetWarning,0833.2,4.99,000.00,027.8,026.2,000.0,036.2,029.5,24.8,0000.0,0009.93,0003.48,0002.59
2023-09-05 19:04:00,SystemResetWarning,0833.3,5.00,000.00,027.9,026.4,000.0,036.2,029.6,24.1,0000.0,0009.41,0003.48,0002.60
2023-09-05 19:05:00,SystemResetWarning,0833.3,5.00,000.00,027.9,026.7,000.0,036.3,029.6,24.0,0000.0,0009.03,0003.44,0002.58
2023-09-05 19:06:00,SystemResetWarning,0833.3,5.01,000.00,028.0,026.8,000.0,036.3,029.7,24.4,0000.0,0008.95,0003.42,0002.55
2023-09-05 19:07:00,SystemResetWarning,0833.3,5.00,000.00,028.0,027.0,000.0,036.3,029.8,24.2,0000.0,0008.29,0003.36,0002.52
2023-09-05 19:08:00,SystemResetWarning,0833.3,5.00,000.00,028.1,027.2,000.0,036.3,029.8,23.8,0000.0,0008.53,0003.30,0002.50
2023-09-05 19:09:00,SystemResetWarning,0833.4,4.99,000.00,028.1,026.9,000.0,036.3,029.8,24.0,0000.0,0009.41,0003.27,0002.47
2023-09-05 19:10:00,SystemResetWarning,0833.3,5.00,000.00,028.1,025.5,000.0,036.3,029.4,23.7,0000.0,0010.58,0003.25,0002.44
2023-09-05 19:11:00,SystemResetWarning,0833.3,5.02,000.00,028.0,024.9,000.0,036.2,029.3,24.1,0000.0,0010.07,0003.23,0002.40
2023-09-05 19:12:00,SystemResetWarning,0833.2,4.99,000.00,027.9,025.0,000.0,036.2,029.2,24.3,0000.0,0009.95,0003.19,0002.37
2023-09-05 19:13:00,SystemResetWarning,0833.3,4.99,000.00,027.9,025.3,000.0,036.3,029.3,25.4,0000.0,0009.71,0003.12,0002.32
2023-09-05 19:14:00,SystemResetWarning,0833.3,5.00,000.00,027.9,025.7,000.0,036.3,029.4,25.3,0000.0,0009.86,0003.05,0002.27
2023-09-05 19:15:00,SystemResetWarning,0833.3,5.01,000.00,027.9,026.0,000.0,036.3,029.5,24.5,0000.0,0010.45,0003.02,0002.25
2023-09-05 19:16:00,SystemResetWarning,0833.3,5.00,000.00,028.0,026.3,000.0,036.3,029.6,24.6,0000.0,0010.50,0003.01,0002.24
2023-09-05 19:17:00,SystemResetWarning,0833.3,5.00,000.00,028.0,026.6,000.0,036.3,029.7,24.1,0000.0,0010.38,0002.98,0002.22
2023-09-05 19:18:00,SystemResetWarning,0833.3,5.01,000.00,028.1,026.8,000.0,036.4,029.8,23.9,0000.0,0010.26,0003.02,0002.20
2023-09-05 19:19:00,SystemResetWarning,0833.4,5.00,000.00,028.1,027.0,000.0,036.4,029.8,23.7,0000.0,0010.46,0003.06,0002.19
2023-09-05 19:20:00,SystemResetWarning,0833.4,4.99,000.00,028.2,027.1,000.0,036.4,029.9,23.6,0000.0,0010.33,0003.04,0002.19
2023-09-05 19:21:00,SystemResetWarning,0833.4,4.98,000.00,028.2,026.6,000.0,036.4,029.8,23.5,0000.0,0009.50,0003.03,0002.19
2023-09-05 19:22:00,SystemResetWarning,0833.3,5.00,000.00,028.1,025.2,000.0,036.3,029.3,23.5,0000.0,0009.53,0003.03,0002.21
2023-09-05 19:23:00,SystemResetWarning,0833.3,5.00,000.00,028.0,024.9,000.0,036.3,029.3,23.9,0000.0,0009.74,0003.00,0002.22
2023-09-05 19:24:00,SystemResetWarning,0833.3,5.01,000.00,027.9,025.1,000.0,036.3,029.3,24.1,0000.0,0010.04,0003.01,0002.24
2023-09-05 19:25:00,SystemResetWarning,0833.3,5.00,000.00,027.9,025.5,000.0,036.3,029.4,24.4,0000.0,0010.27,0003.03,0002.25
2023-09-05 19:26:00,SystemResetWarning,0833.3,5.00,000.00,027.9,025.8,000.0,036.3,029.5,24.2,0000.0,0010.15,0003.02,0002.25
2023-09-05 19:27:00,SystemResetWarning,0833.4,5.01,000.00,028.0,026.2,000.0,036.3,029.6,23.9,0000.0,0010.19,0003.05,0002.24
2023-09-05 19:28:00,SystemResetWarning,0833.3,4.99,000.00,028.0,026.4,000.0,036.4,029.7,24.0,0000.0,0010.90,0003.05,0002.23
2023-09-05 19:29:00,SystemResetWarning,0833.3,4.99,000.00,028.1,026.7,000.0,036.4,029.8,23.7,0000.0,0011.61,0003.05,0002.24
2023-09-05 19:30:00,SystemResetWarning,0833.3,5.00,000.00,028.1,026.9,000.0,036.4,029.8,23.8,0000.0,0011.10,0003.09,0002.25
2023-09-05 19:31:00,SystemResetWarning,0833.4,5.01,000.00,028.2,027.1,000.0,036.4,029.9,24.4,0000.0,0010.33,0003.11,0002.24
2023-09-05 19:32:00,SystemResetWarning,0833.4,5.00,000.00,028.2,026.9,000.0,036.4,029.9,24.0,0000.0,0009.96,0003.11,0002.23
2023-09-05 19:33:00,SystemResetWarning,0833.3,4.99,000.00,028.1,025.2,000.0,036.4,029.4,23.8,0000.0,0009.75,0003.12,0002.21
2023-09-05 19:34:00,SystemResetWarning,0833.2,5.00,000.00,028.0,024.1,000.0,036.3,029.1,23.8,0000.0,0009.46,0003.12,0002.21
2023-09-05 19:35:00,SystemResetWarning,0833.3,5.01,000.00,027.9,024.2,000.0,036.2,029.0,24.2,0000.0,0008.98,0003.10,0002.20
2023-09-05 19:36:00,SystemResetWarning,0833.2,5.01,000.00,027.8,024.5,000.0,036.2,029.0,24.8,0000.0,0008.60,0003.03,0002.19
2023-09-05 19:37:00,SystemResetWarning,0833.3,4.99,000.00,027.8,024.9,000.0,036.2,029.2,25.1,0000.0,0007.79,0002.98,0002.17
2023-09-05 19:38:00,SystemResetWarning,0833.3,5.01,000.00,027.8,025.4,000.0,036.2,029.3,24.5,0000.0,0007.73,0002.99,0002.16
2023-09-05 19:39:00,SystemResetWarning,0833.3,5.00,000.00,027.8,025.8,000.0,036.3,029.4,23.9,0000.0,0006.99,0002.98,0002.15
2023-09-05 19:40:00,SystemResetWarning,0833.3,4.99,000.00,027.9,026.1,000.0,036.3,029.5,24.0,0000.0,0005.61,0003.00,0002.16
2023-09-05 19:41:00,SystemResetWarning,0833.3,4.99,000.00,027.9,026.4,000.0,036.3,029.6,24.3,0000.0,0005.38,0002.91,0002.13
2023-09-05 19:42:00,SystemResetWarning,0833.3,5.01,000.00,028.0,026.6,000.0,036.3,029.7,24.2,0000.0,0006.09,0002.86,0002.12
2023-09-05 19:43:00,SystemResetWarning,0833.3,4.99,000.00,028.0,026.8,000.0,036.3,029.7,24.4,0000.0,0006.50,0002.89,0002.11
2023-09-05 19:44:00,SystemResetWarning,0833.3,5.00,000.00,028.1,027.0,000.0,036.4,029.8,24.3,0000.0,0007.73,0002.85,0002.09
2023-09-05 19:45:00,SystemResetWarning,0833.2,4.99,000.00,028.1,026.5,000.0,036.3,029.7,24.4,0000.0,0008.08,0002.81,0002.07
2023-09-05 19:46:00,SystemResetWarning,0833.3,5.00,000.00,028.0,024.9,000.0,036.3,029.1,23.8,0000.0,0008.27,0002.83,0002.05
2023-09-05 19:47:00,SystemResetWarning,0833.2,5.01,000.00,027.9,024.0,000.0,036.2,028.9,23.7,0000.0,0008.60,0002.84,0002.04
2023-09-05 19:48:00,SystemResetWarning,0833.2,5.02,000.00,027.8,024.2,000.0,036.1,028.9,24.0,0000.0,0009.27,0002.91,0002.05
2023-09-05 19:49:00,SystemResetWarning,0833.2,5.00,000.00,027.7,024.5,000.0,036.1,029.0,24.4,0000.0,0009.25,0002.87,0002.03
2023-09-05 19:50:00,SystemResetWarning,0833.2,5.00,000.00,027.7,025.0,000.0,036.2,029.1,24.8,0000.0,0009.67,0002.88,0002.02
2023-09-05 19:51:00,SystemResetWarning,0833.2,5.00,000.00,027.7,025.4,000.0,036.2,029.2,24.5,0000.0,0009.66,0002.80,0002.01
2023-09-05 19:52:00,SystemResetWarning,0833.2,5.00,000.00,027.8,025.8,000.0,036.2,029.4,24.5,0000.0,0009.82,0002.79,0002.01
2023-09-05 19:53:00,SystemResetWarning,0833.2,5.00,000.00,027.8,026.1,000.0,036.2,029.5,24.8,0000.0,0009.67,0002.80,0001.99
2023-09-05 19:54:00,SystemResetWarning,0833.3,4.99,000.00,027.9,026.4,000.0,036.2,029.5,25.2,0000.0,0009.44,0002.80,0001.99
2023-09-05 19:55:00,SystemResetWarning,0833.2,5.00,000.00,027.9,026.6,000.0,036.2,029.6,24.4,0000.0,0008.91,0002.78,0001.99
2023-09-05 19:56:00,SystemResetWarning,0833.3,5.00,000.00,028.0,026.8,000.0,036.3,029.7,23.9,0000.0,0008.11,0002.79,0002.01
2023-09-05 19:57:00,SystemResetWarning,0833.2,5.01,000.00,028.0,027.0,000.0,036.3,029.8,24.0,0000.0,0008.15,0002.84,0002.02
2023-09-05 19:58:00,SystemResetWarning,0833.2,4.98,000.00,028.1,027.2,000.0,036.3,029.8,23.9,0000.0,0008.10,0002.84,0002.03
2023-09-05 19:59:00,SystemResetWarning,0833.2,4.99,000.00,028.1,027.1,000.0,036.3,029.9,24.3,0000.0,0008.31,0002.85,0002.05
